KF0EZB Weather Reports


time (UTC)temp
F
wind
direction
speed
knots
gust
knots
rain 1hr
in
rain 24hr
in
rain mn
in
humidity
%
barometer
mb
20260505112026 51 66 3.5 7.8 0.00 0.00 0.00 55 1009.1
20260505111520 51 56 5.2 13.0 0.00 0.00 0.00 54 1009.2
20260505111017 51 57 4.3 14.8 0.00 0.00 0.00 53 1009.2
20260505110514 51 74 3.5 12.2 0.00 0.00 0.00 53 1009.0
20260505101945 52 31 4.3 7.8 0.00 0.00 0.00 50 1008.3
20260505101438 52 43 2.6 13.0 0.00 0.00 0.00 51 1008.2
20260505100934 52 113 3.5 8.7 0.00 0.00 0.00 51 1008.0
20260505100432 52 106 5.2 12.2 0.00 0.00 0.00 51 1007.8
20260505095927 53 106 6.1 17.4 0.00 0.00 0.00 51 1008.1
20260505095425 53 32 2.6 7.8 0.00 0.00 0.00 51 1008.0
20260505094920 53 40 5.2 13.0 0.00 0.00 0.00 51 1008.0
20260505094418 53 53 5.2 11.3 0.00 0.00 0.00 52 1008.0
20260505093914 53 69 1.7 6.1 0.00 0.00 0.00 52 1007.9
20260505093411 53 38 3.5 9.6 0.00 0.00 0.00 53 1007.6
20260505092908 53 35 6.1 12.2 0.00 0.00 0.00 52 1007.4
20260505092406 53 75 2.6 7.8 0.00 0.00 0.00 52 1007.3
20260505091903 53 39 6.1 11.3 0.00 0.00 0.00 52 1007.0
20260505091401 53 70 7.8 12.2 0.00 0.00 0.00 51 1007.2
20260505090858 53 49 6.1 9.6 0.00 0.00 0.00 51 1007.0
20260505090356 53 38 7.0 13.9 0.00 0.00 0.00 51 1007.0
20260505085853 54 48 7.8 14.8 0.00 0.00 0.00 50 1006.9
20260505085351 54 86 8.7 13.9 0.00 0.00 0.00 50 1006.8
20260505084849 54 56 3.5 7.0 0.00 0.00 0.00 50 1006.8
20260505084347 54 85 3.5 14.8 0.00 0.00 0.00 50 1007.1
20260505083845 54 128 3.5 9.6 0.00 0.00 0.00 50 1006.9
20260505083342 55 35 6.1 11.3 0.00 0.00 0.00 50 1006.5
20260505082838 55 29 2.6 14.8 0.00 0.00 0.00 50 1006.5
20260505082334 55 129 2.6 12.2 0.00 0.00 0.00 49 1006.4
20260505081831 55 32 2.6 9.6 0.00 0.00 0.00 49 1006.1
20260505081328 55 58 7.8 18.2 0.00 0.00 0.00 49 1006.0
20260505080825 55 112 6.1 13.9 0.00 0.00 0.00 49 1005.9
20260505080320 55 29 12.2 18.2 0.00 0.00 0.00 48 1005.9
20260505075816 55 126 4.3 12.2 0.00 0.00 0.00 48 1006.1
20260505075313 56 45 3.5 9.6 0.00 0.00 0.00 48 1006.0
20260505074810 56 61 3.5 13.9 0.00 0.00 0.00 47 1005.9
20260505074308 56 57 7.0 13.0 0.00 0.00 0.00 47 1006.0
20260505073805 56 26 9.6 17.4 0.00 0.00 0.00 46 1005.9
20260505073303 56 89 2.6 12.2 0.00 0.00 0.00 47 1005.8
20260505072800 56 44 8.7 13.0 0.00 0.00 0.00 47 1006.0
20260505072255 57 18 5.2 9.6 0.00 0.00 0.00 47 1006.1
20260505071751 57 57 4.3 9.6 0.00 0.00 0.00 47 1006.0
20260505071248 57 155 5.2 11.3 0.00 0.00 0.00 47 1006.0
20260505070746 57 61 4.3 13.9 0.00 0.00 0.00 48 1005.9
20260505070242 57 87 7.0 14.8 0.00 0.00 0.00 49 1005.9
20260505065738 57 300 3.5 8.7 0.00 0.00 0.00 50 1005.9
20260505065235 57 47 2.6 6.1 0.00 0.00 0.00 49 1005.7
20260505064732 58 73 1.7 7.8 0.00 0.00 0.00 48 1005.3
20260505064229 60 48 0.9 6.1 0.00 0.00 0.00 46 1005.3
20260505063727 60 51 2.6 7.8 0.00 0.00 0.00 44 1005.2
20260505063223 61 52 4.3 7.8 0.00 0.00 0.00 44 1005.5
20260505062719 61 50 1.7 9.6 0.00 0.00 0.00 43 1005.5
20260505062217 61 59 6.1 13.0 0.00 0.00 0.00 44 1005.5
20260505061714 61 36 7.8 9.6 0.00 0.00 0.00 43 1005.4
20260505061212 61 58 0.9 4.3 0.00 0.00 0.00 43 1005.1
20260505060709 61 36 7.0 12.2 0.00 0.00 0.00 42 1005.0
20260505060206 62 56 5.2 8.7 0.00 0.00 0.00 43 1005.0
20260505055701 62 47 5.2 13.0 0.00 0.00 0.00 43 1004.5
20260505055158 62 77 2.6 8.7 0.00 0.00 0.00 43 1004.7
20260505054655 62 39 3.5 11.3 0.00 0.00 0.00 43 1004.4
20260505054153 62 60 4.3 7.0 0.00 0.00 0.00 44 1004.3
20260505053650 62 50 5.2 14.8 0.00 0.00 0.00 46 1004.3
20260505053147 62 75 2.6 7.0 0.00 0.00 0.00 48 1004.2
20260505052644 62 137 0.9 5.2 0.00 0.00 0.00 50 1004.3
20260505052141 62 59 3.5 8.7 0.00 0.00 0.00 50 1004.1
20260505051637 63 130 2.6 9.6 0.00 0.00 0.00 49 1004.0
20260505051136 63 40 3.5 8.7 0.00 0.00 0.00 50 1003.7
20260505050633 63 101 2.6 7.8 0.00 0.00 0.00 50 1004.0
20260505050132 63 82 6.1 9.6 0.00 0.00 0.00 50 1003.7
20260505041601 65 131 1.7 8.7 0.00 0.00 0.00 54 1003.1
20260505041059 65 43 4.3 7.8 0.00 0.00 0.00 53 1002.9
20260505040556 66 50 5.2 9.6 0.00 0.00 0.00 53 1003.1
20260505040053 66 61 4.3 8.7 0.00 0.00 0.00 52 1002.7
20260505035549 66 52 4.3 13.0 0.00 0.00 0.00 51 1002.8
20260505035046 67 67 3.5 7.8 0.00 0.00 0.00 52 1002.8
20260505034542 66 46 6.1 8.7 0.00 0.00 0.00 54 1003.0
20260505034039 66 105 0.9 7.8 0.00 0.00 0.00 59 1002.8
20260505033536 65 91 1.7 7.0 0.00 0.00 0.00 61 1003.0
20260505033035 66 102 0.9 1.7 0.00 0.00 0.00 62 1002.9
20260505032532 66 95 0.0 4.3 0.00 0.00 0.00 62 1002.5
20260505032028 67 96 2.6 5.2 0.00 0.00 0.00 61 1002.4
20260505031526 66 70 2.6 2.6 0.00 0.00 0.00 60 1002.6
20260505031022 67 124 0.0 0.0 0.00 0.00 0.00 59 1002.5
20260505030519 67 130 0.0 0.9 0.00 0.00 0.00 58 1002.3
20260505030015 67 114 0.9 2.6 0.00 0.00 0.00 56 1002.2
20260505025511 68 97 1.7 4.3 0.00 0.00 0.00 54 1001.8
20260505025010 68 95 0.0 2.6 0.00 0.00 0.00 53 1002.1
20260505024506 68 110 0.9 0.9 0.00 0.00 0.00 53 1002.0
20260505024003 68 121 0.0 0.9 0.00 0.00 0.00 53 1001.9
20260505023500 68 124 0.0 0.0 0.00 0.00 0.00 53 1001.6
20260505022958 68 116 0.0 1.7 0.00 0.00 0.00 53 1001.4
20260505022455 68 86 0.9 2.6 0.00 0.00 0.00 53 1001.3
20260505021952 69 94 3.5 4.3 0.00 0.00 0.00 52 1001.1
20260505021449 69 123 0.0 0.0 0.00 0.00 0.00 51 1001.6
20260505020944 69 119 0.0 0.0 0.00 0.00 0.00 50 1001.4
20260505020440 70 110 0.0 0.9 0.00 0.00 0.00 48 1001.3
20260505015937 70 103 0.9 1.7 0.00 0.00 0.00 47 1001.3
20260505015434 71 103 0.0 1.7 0.00 0.00 0.00 46 1001.1
20260505014931 71 103 0.9 1.7 0.00 0.00 0.00 46 1001.1
20260505014428 71 94 2.6 4.3 0.00 0.00 0.00 46 1001.2
20260505013925 71 92 0.9 2.6 0.00 0.00 0.00 47 1000.9
20260505013422 71 114 0.0 0.0 0.00 0.00 0.00 47 1001.0
20260505012920 72 112 0.0 0.9 0.00 0.00 0.00 45 1001.1
20260505012418 72 112 0.0 0.0 0.00 0.00 0.00 44 1001.1
20260505011914 73 112 0.0 0.0 0.00 0.00 0.00 44 1001.0
20260505011411 74 102 0.0 1.7 0.00 0.00 0.00 43 1001.1
20260505010907 74 157 0.9 0.9 0.00 0.00 0.00 41 1001.0
20260505010403 75 180 0.0 0.0 0.00 0.00 0.00 41 1001.2
20260505005859 75 179 0.9 1.7 0.00 0.00 0.00 41 1001.6
20260505005356 75 213 0.9 5.2 0.00 0.00 0.00 40 1001.4
20260505004854 76 197 0.9 2.6 0.00 0.00 0.00 39 1001.4
20260505004349 77 154 0.0 7.0 0.00 0.00 0.00 38 1001.1
20260505003847 78 186 1.7 1.7 0.00 0.00 0.00 36 1001.2
20260505003344 78 113 1.7 1.7 0.00 0.00 0.00 34 1000.9
20260505002840 79 181 0.0 0.9 0.00 0.00 0.00 35 1000.9
20260505002337 79 267 7.8 8.7 0.00 0.00 0.00 34 1000.9
20260505001836 79 2 0.9 0.9 0.00 0.00 0.00 32 1001.1
20260505001332 79 335 0.9 1.7 0.00 0.00 0.00 31 1000.9
20260505000829 80 287 4.3 5.2 0.00 0.00 0.00 30 1001.1
20260505000327 80 298 1.7 2.6 0.00 0.00 0.00 30 1001.0
20260504235824 80 176 0.0 0.9 0.00 0.00 0.00 31 1000.8
20260504235321 80 180 0.0 0.9 0.00 0.00 0.00 31 1001.0
20260504234817 80 161 0.0 1.7 0.00 0.00 0.00 32 1000.7
20260504234315 81 164 0.9 1.7 0.00 0.00 0.00 31 1000.8
20260504233811 81 210 1.7 1.7 0.00 0.00 0.00 31 1000.6
20260504233307 82 185 0.9 2.6 0.00 0.00 0.00 30 1000.7
20260504232804 83 145 1.7 6.1 0.00 0.00 0.00 28 1000.4
20260504232303 83 135 1.7 2.6 0.00 0.00 0.00 25 1000.3
20260504231758 84 119 1.7 5.2 0.00 0.00 0.00 24 1000.4
20260504231254 84 122 2.6 5.2 0.00 0.00 0.00 25 1000.2
20260504230750 84 103 0.9 2.6 0.00 0.00 0.00 24 1000.5
20260504230249 84 188 1.7 4.3 0.00 0.00 0.00 25 1000.2
20260504225747 85 112 2.6 2.6 0.00 0.00 0.00 24 1000.3
20260504225243 86 143 2.6 7.0 0.00 0.00 0.00 25 1000.6
20260504224740 86 136 0.9 1.7 0.00 0.00 0.00 25 1000.6
20260504224237 86 134 0.0 0.0 0.00 0.00 0.00 23 1000.4
20260504223734 86 93 6.1 7.8 0.00 0.00 0.00 23 1000.2
20260504223229 86 106 2.6 6.1 0.00 0.00 0.00 24 1000.4
20260504222727 86 118 0.0 0.0 0.00 0.00 0.00 24 1000.6
20260504222223 86 125 0.0 6.1 0.00 0.00 0.00 22 1000.6
20260504221721 87 107 2.6 7.8 0.00 0.00 0.00 22 1000.4
20260504221218 87 80 5.2 6.1 0.00 0.00 0.00 20 1000.6
20260504220714 87 99 0.0 7.8 0.00 0.00 0.00 20 1000.3
20260504220212 88 122 0.9 4.3 0.00 0.00 0.00 17 1000.5
20260504215709 88 135 0.0 0.9 0.00 0.00 0.00 20 1000.5
20260504215206 87 100 3.5 8.7 0.00 0.00 0.00 18 1000.5
20260504214701 87 114 0.0 4.3 0.00 0.00 0.00 19 1000.4
20260504214158 87 90 1.7 7.8 0.00 0.00 0.00 18 1000.7
20260504213655 86 95 0.9 7.0 0.00 0.00 0.00 18 1000.4
20260504213151 86 103 0.9 5.2 0.00 0.00 0.00 19 1000.9
20260504212648 87 154 0.0 5.2 0.00 0.00 0.00 19 1000.8
20260504212144 87 138 0.0 0.0 0.00 0.00 0.00 19 1000.8
20260504211642 88 154 3.5 5.2 0.00 0.00 0.00 20 1001.0
20260504211138 87 103 2.6 2.6 0.00 0.00 0.00 21 1001.2
20260504210636 87 89 7.0 8.7 0.00 0.00 0.00 20 1001.0
20260504210132 86 75 0.9 7.0 0.00 0.00 0.00 20 1001.2
20260504205630 86 71 0.9 4.3 0.00 0.00 0.00 19 1001.2
20260504205127 87 88 3.5 5.2 0.00 0.00 0.00 19 1001.2
20260504204626 87 82 1.7 5.2 0.00 0.00 0.00 21 1001.4
20260504204124 86 146 1.7 7.0 0.00 0.00 0.00 19 1001.4
20260504203622 87 59 2.6 6.1 0.00 0.00 0.00 18 1001.6
20260504203120 87 90 2.6 6.1 0.00 0.00 0.00 19 1001.7
20260504202614 87 84 6.1 9.6 0.00 0.00 0.00 21 1001.8
20260504202111 88 99 5.2 9.6 0.00 0.00 0.00 19 1002.0
20260504201608 87 195 1.7 1.7 0.00 0.00 0.00 20 1002.0
20260504201106 87 80 4.3 8.7 0.00 0.00 0.00 19 1002.1
20260504200603 86 152 1.7 2.6 0.00 0.00 0.00 20 1002.1
20260504200059 87 143 2.6 7.8 0.00 0.00 0.00 19 1002.3
20260504195555 87 85 5.2 6.1 0.00 0.00 0.00 19 1002.1
20260504195052 86 75 5.2 7.8 0.00 0.00 0.00 20 1002.4
20260504194549 87 130 1.7 7.8 0.00 0.00 0.00 20 1002.4
20260504194044 87 116 4.3 9.6 0.00 0.00 0.00 20 1002.2
20260504193541 86 89 9.6 14.8 0.00 0.00 0.00 21 1002.5
20260504193039 86 89 9.6 9.6 0.00 0.00 0.00 21 1002.5
20260504192537 86 91 6.1 9.6 0.00 0.00 0.00 22 1002.4
20260504192035 85 92 7.8 8.7 0.00 0.00 0.00 22 1002.7
20260504191533 86 72 6.1 12.2 0.00 0.00 0.00 21 1002.9
20260504191029 86 77 3.5 7.8 0.00 0.00 0.00 23 1002.7
20260504190525 86 105 3.5 7.8 0.00 0.00 0.00 23 1002.9
20260504190021 85 87 4.3 5.2 0.00 0.00 0.00 21 1002.9
20260504185518 84 133 3.5 6.1 0.00 0.00 0.00 22 1003.0
20260504185015 85 63 5.2 7.0 0.00 0.00 0.00 21 1003.3
20260504184510 85 76 0.9 9.6 0.00 0.00 0.00 21 1003.5
20260504184006 85 63 5.2 11.3 0.00 0.00 0.00 19 1003.4
20260504183503 85 118 7.0 13.9 0.00 0.00 0.00 20 1003.4
20260504183001 85 78 5.2 7.0 0.00 0.00 0.00 22 1003.3
20260504182458 84 91 3.5 6.1 0.00 0.00 0.00 22 1003.4
20260504181955 86 164 1.7 7.8 0.00 0.00 0.00 23 1003.4
20260504181452 86 96 2.6 8.7 0.00 0.00 0.00 21 1003.4
20260504180951 85 75 1.7 7.8 0.00 0.00 0.00 22 1003.6
20260504180449 85 103 4.3 6.1 0.00 0.00 0.00 21 1003.6
20260504175947 86 59 1.7 5.2 0.00 0.00 0.00 21 1003.5
20260504175444 84 77 4.3 7.0 0.00 0.00 0.00 21 1003.6
20260504174942 82 89 7.8 12.2 0.00 0.00 0.00 22 1003.5
20260504174439 83 83 4.3 6.1 0.00 0.00 0.00 22 1003.7
20260504173936 84 53 4.3 7.0 0.00 0.00 0.00 22 1003.8
20260504173432 84 85 5.2 7.8 0.00 0.00 0.00 26 1003.5
20260504172930 85 82 2.6 7.8 0.00 0.00 0.00 23 1003.7
20260504172426 84 81 4.3 7.0 0.00 0.00 0.00 26 1003.7
20260504171922 82 112 1.7 5.2 0.00 0.00 0.00 29 1003.9
20260504171420 85 73 7.8 8.7 0.00 0.00 0.00 27 1003.9
20260504170917 83 104 0.9 1.7 0.00 0.00 0.00 28 1004.0
20260504170413 82 90 2.6 7.0 0.00 0.00 0.00 28 1004.0
20260504160332 80 126 0.0 2.6 0.00 0.00 0.00 31 1003.9
20260504150756 71 186 0.9 1.7 0.00 0.00 0.00 40 1003.9
20260504150253 70 178 0.9 1.7 0.00 0.00 0.00 41 1003.9
20260504141223 64 239 2.6 4.3 0.00 0.00 0.00 45 1004.0
20260504140720 64 232 2.6 5.2 0.00 0.00 0.00 46 1003.7
20260504140215 63 232 0.0 5.2 0.00 0.00 0.00 47 1003.8
20260504130644 57 238 0.0 0.0 0.00 0.00 0.00 52 1003.8
20260504130140 57 277 0.0 1.7 0.00 0.00 0.00 52 1003.8
20260504120104 57 259 0.0 5.2 0.00 0.00 0.00 54 1003.5